Home > Time Zones > World Clock > Weather > Latvia > Riga > Past weeks

Flag for Latvia Weather past 2 weeks in Riga, Latvia

Now
59 °F

Passing clouds.


Feels Like: 58 °F
Forecast: 45 / 59 °F
Wind: 6 mph from Southeast

Location: Riga Airport

Current Time: May 30, 2015 at 10:08:59 AM

Latest Report: May 30, 2015 at 9:20 AM


Visibility: N/A

Pressure: 29.86 "Hg

Humidity: 63%

Dew point: 46 °F

Location of RigaLocation

Historic Weather in Riga — Graph

°F

Riga temperature yesterday

Maximum temperature yesterday: 64 °F (at 5:20 PM)
Minimum temperature yesterday: 41 °F (at 4:50 AM)
Average temperature yesterday: 54 °F

Past Weeks' High & Low Weather Summary

 TemperatureHumidityPressure
High68 °F (May 25, 2:50 PM)100% (May 16, 10:20 PM)30.21 "Hg (May 16, 10:20 PM)
Low36 °F (May 17, 12:20 AM)39% (May 22, 1:20 PM)29.65 "Hg (May 18, 6:50 AM)
Average51 °F78%29.89 "Hg
* Reported May 15 9:20 AM — May 30 9:20 AM, Riga, Weather by CustomWeather, © 2015

Note: Actual official high and low records may vary slightly from our data, if they occured in-between our weather recording intervals... More about our weather records

Advertising

Riga weather history for previous 24 hours

 ConditionsComfort  
Time TempWeatherWind HumidityBarometerVisibility
9:20 AM
Sat, May 30
59 °FPassing clouds.6 mph63%29.86 "HgN/A
8:50 AM55 °FPassing clouds.6 mph77%29.86 "HgN/A
8:20 AM54 °FPassing clouds.5 mph77%29.89 "HgN/A
7:50 AM52 °FPassing clouds.5 mph82%29.89 "HgN/A
7:20 AM50 °FSunny.2 mph88%29.89 "Hg10 mi
6:20 AM45 °FSunny.No wind93%29.89 "Hg10 mi
5:50 AM43 °FSunny.2 mph100%29.89 "Hg10 mi
5:20 AM41 °FClear.No wind100%29.89 "Hg10 mi
4:50 AM41 °FClear.2 mph100%29.89 "Hg10 mi
4:20 AM41 °FClear.No wind100%29.89 "Hg10 mi
3:50 AM41 °FClear.1 mph100%29.89 "Hg10 mi
3:20 AM41 °FClear.No wind100%29.89 "Hg10 mi
2:50 AM43 °FClear.No wind93%29.89 "Hg10 mi
2:20 AM45 °FClear.1 mph93%29.92 "Hg10 mi
1:50 AM45 °FClear.No wind93%29.92 "Hg10 mi
1:20 AM45 °FClear.No wind93%29.92 "Hg10 mi
12:50 AM45 °FClear.No wind100%29.92 "Hg10 mi
12:20 AM46 °FClear.2 mph93%29.92 "Hg10 mi
11:20 PM
Fri, May 29
48 °FClear.3 mph94%29.89 "Hg10 mi
10:50 PM50 °FSunny.3 mph94%29.89 "Hg10 mi
10:20 PM50 °FSunny.5 mph94%29.89 "Hg10 mi
9:50 PM52 °FSunny.6 mph88%29.89 "Hg10 mi
9:20 PM54 °FSunny.7 mph82%29.89 "Hg10 mi
8:50 PM57 °FSunny.8 mph67%29.86 "Hg10 mi
8:20 PM59 °FSunny.7 mph59%29.86 "Hg10 mi
7:50 PM61 °FPassing clouds.7 mph52%29.86 "HgN/A
7:20 PM63 °FSunny.8 mph45%29.86 "Hg10 mi
6:50 PM63 °FPassing clouds.7 mph49%29.86 "HgN/A
6:20 PM63 °FPassing clouds.8 mph49%29.86 "HgN/A
5:50 PM63 °FPassing clouds.8 mph45%29.86 "HgN/A
5:20 PM64 °FSunny.8 mph43%29.86 "Hg10 mi
4:50 PM63 °FScattered clouds.5 mph52%29.83 "HgN/A
4:20 PM61 °FScattered clouds.8 mph52%29.86 "HgN/A
3:50 PM61 °FPartly sunny.3 mph59%29.86 "HgN/A
3:20 PM61 °FScattered clouds.7 mph59%29.86 "HgN/A
2:50 PM61 °FScattered clouds.7 mph59%29.86 "HgN/A
2:20 PM57 °FScattered clouds.6 mph72%29.86 "HgN/A
1:50 PM59 °FScattered clouds.7 mph68%29.86 "HgN/A
1:20 PM57 °FPartly sunny.8 mph72%29.86 "HgN/A
12:50 PM57 °FScattered clouds.8 mph72%29.86 "HgN/A
12:20 PM55 °FScattered clouds.6 mph77%29.83 "HgN/A
11:50 AM57 °FPassing clouds.6 mph72%29.83 "HgN/A
11:20 AM57 °FLight rain. Clear.7 mph67%29.83 "HgN/A
10:50 AM59 °FPassing clouds.7 mph63%29.83 "HgN/A
10:20 AM59 °FPassing clouds.7 mph59%29.83 "HgN/A
Weather by CustomWeather, © 2015

See weather overviewHow to use our weather pages